C/2010 U3 ( Boattini )

Japanese version
Home page
Updated on June 14, 2021

---------------------------------------------------------------------

* Profile

Discovery Date October 31, 2010
Magnitude 19.4 mag
Discoverer A. Boattini (Mt. Lemmon)

* Pictures

* Orbital Elements

Epoch 2019 Mar. 18.0 TT = JDT 2458560.5
T 2019 Feb. 26.61943 TT                                 Rudenko
q   8.4455415            (2000.0)            P               Q
z  +0.0001952      Peri.   88.08613     -0.36204477     -0.74305740
 +/-0.0000002      Node    43.06734     +0.07255991     -0.62443448
e   0.9983515      Incl.   55.51181     +0.92933237     -0.24072242
From 2525 observations 2005 Nov. 5-2021 May 9, mean residual 0".8.

* Finding Charts

* Magnitudes Graph

        m1 = 5.5 + 5 log d +  7.0 log r(t + 800)  [    ,-800]  (             - 2016 Dec. 18)
        m1 = 2.7 + 5 log d + 10.0 log r(t + 800)  [-800,    ]  (2016 Dec. 18 -             )

---------------------------------------------------------------------

The orbital elements are published on M.P.E.C. 2021-L04.
The charts are made with StellaNavigator Ver.8 (AstroArts).
The magnitudes graphs are made with Comet for Windows.

---------------------------------------------------------------------

Copyright(C) Seiichi Yoshida (comet@aerith.net). All rights reserved.